KD4LXC-1 Weather Reports


time (UTC)temp
C
wind
direction
speed
KPH
gust
KPH
rain 1hr
cm
rain 24hr
cm
rain mn
cm
humidity
%
barometer
mb
20260510215910 31 356 0.0 0.0 0.00 0.00 0.00 4 888.3
20260510214701 31 353 0.0 0.0 0.00 0.00 0.00 3 888.4
20260510213452 32 336 0.0 0.0 0.00 0.00 0.00 3 888.4
20260510212243 32 353 0.0 0.0 0.00 0.00 0.00 2 888.2
20260510211034 33 345 0.0 0.0 0.00 0.00 0.00 0 888.6
20260510205825 33 346 0.0 0.0 0.00 0.00 0.00 100 888.3
20260510204616 33 343 0.0 0.0 0.00 0.00 0.00 100 889.0
20260510203407 33 0 0.0 0.0 0.00 0.00 0.00 100 888.8
20260510202158 33 356 0.0 0.0 0.00 0.00 0.00 100 889.1
20260510200949 33 350 0.0 0.0 0.00 0.00 0.00 100 889.1
20260510195740 33 333 0.0 0.0 0.00 0.00 0.00 100 889.0
20260510194531 33 352 0.0 0.0 0.00 0.00 0.00 100 889.0
20260510193322 33 356 0.0 0.0 0.00 0.00 0.00 100 889.2
20260510192113 33 356 0.0 0.0 0.00 0.00 0.00 100 889.1
20260510190904 34 342 0.0 0.0 0.00 0.00 0.00 100 889.0
20260510185655 35 353 0.0 0.0 0.00 0.00 0.00 100 889.4
20260510184446 34 349 0.0 0.0 0.00 0.00 0.00 100 889.7
20260510183237 33 173 0.0 0.0 0.00 0.00 0.00 100 889.5
20260510182028 33 271 0.0 0.0 0.00 0.00 0.00 100 889.7
20260510180819 33 210 0.0 0.0 0.00 0.00 0.00 100 889.7
20260510175610 33 180 0.0 0.0 0.00 0.00 0.00 0 889.8
20260510174404 32 11727 0.0 0.0 0.00 0.00 0.00 1 70.7
20260510174401 32 207 0.0 0.0 0.00 0.00 0.00 1 889.9
20260510173152 32 183 0.0 0.0 0.00 0.00 0.00 2 889.9
20260510171943 32 210 0.0 0.0 0.00 0.00 0.00 4 889.8
20260510170734 31 193 0.0 0.0 0.00 0.00 0.00 6 890.0
20260510165525 31 186 0.0 0.0 0.00 0.00 0.00 7 889.8
20260510164316 31 183 0.0 0.0 0.00 0.00 0.00 9 889.8
20260510163107 30 211 0.0 0.0 0.00 0.00 0.00 11 889.8
20260510161858 30 240 0.0 0.0 0.00 0.00 0.00 12 889.8
20260510160648 29 224 0.0 0.0 0.00 0.00 0.00 14 889.8
20260510155439 28 222 0.0 0.0 0.00 0.00 0.00 16 889.9
20260510154231 28 225 0.0 0.0 0.00 0.00 0.00 17 890.0
20260510153022 27 246 0.0 0.0 0.00 0.00 0.00 18 890.2
20260510151812 27 186 0.0 0.0 0.00 0.00 0.00 20 889.9
20260510150603 26 186 0.0 0.0 0.00 0.00 0.00 22 889.5
20260510145356 26 190 0.0 0.0 0.00 0.00 0.00 24 889.7
20260510144145 25 197 0.0 0.0 0.00 0.00 0.00 25 889.6
20260510142936 25 217 0.0 0.0 0.00 0.00 0.00 27 889.6
20260510141727 24 207 0.0 0.0 0.00 0.00 0.00 28 889.6
20260510140520 23 187 0.0 0.0 0.00 0.00 0.00 30 889.3
20260510135310 23 208 0.0 0.0 0.00 0.00 0.00 31 889.5
20260510134100 22 217 0.0 0.0 0.00 0.00 0.00 32 889.5
20260510132852 22 214 0.0 0.0 0.00 0.00 0.00 33 889.3
20260510131642 22 204 0.0 0.0 0.00 0.00 0.00 34 889.2
20260510130433 21 215 0.0 0.0 0.00 0.00 0.00 35 889.2
20260510125224 21 214 0.0 0.0 0.00 0.00 0.00 36 889.1
20260510124015 21 210 0.0 0.0 0.00 0.00 0.00 36 888.9
20260510122806 20 214 0.0 0.0 0.00 0.00 0.00 37 888.9
20260510121557 20 197 0.0 0.0 0.00 0.00 0.00 37 888.7
20260510120348 20 214 0.0 0.0 0.00 0.00 0.00 37 888.5
20260510115139 20 218 0.0 0.0 0.00 0.00 0.00 37 888.4
20260510113930 20 201 0.0 0.0 0.00 0.00 0.00 38 888.6
20260510112721 20 218 0.0 0.0 0.00 0.00 0.00 38 888.4
20260510111512 20 214 0.0 0.0 0.00 0.00 0.00 39 888.2
20260510110303 20 210 0.0 0.0 0.00 0.00 0.00 38 888.0
20260510105054 20 181 0.0 0.0 0.00 0.00 0.00 38 888.2
20260510103845 20 181 0.0 0.0 0.00 0.00 0.00 38 888.0
20260510102637 20 187 0.0 0.0 0.00 0.00 0.00 38 888.0
20260510101427 20 186 0.0 0.0 0.00 0.00 0.00 38 888.0
20260510100218 20 183 0.0 0.0 0.00 0.00 0.00 38 888.0
20260510095009 20 183 0.0 0.0 0.00 0.00 0.00 38 888.1
20260510093800 20 188 0.0 0.0 0.00 0.00 0.00 38 887.7
20260510092551 20 169 0.0 0.0 0.00 0.00 0.00 37 887.9
20260510091342 21 163 0.0 0.0 0.00 0.00 0.00 37 887.7
20260510090133 21 158 0.0 0.0 0.00 0.00 0.00 37 887.7
20260510084924 21 145 0.0 0.0 0.00 0.00 0.00 36 887.8
20260510083715 21 173 0.0 0.0 0.00 0.00 0.00 36 887.9
20260510082506 21 153 0.0 0.0 0.00 0.00 0.00 36 887.9
20260510081257 21 149 0.0 0.0 0.00 0.00 0.00 36 888.1
20260510080048 21 153 0.0 0.0 0.00 0.00 0.00 36 888.2
20260510074839 21 152 0.0 0.0 0.00 0.00 0.00 36 888.2
20260510072422 21 129 0.0 0.0 0.00 0.00 0.00 36 888.6
20260510071212 21 139 0.0 0.0 0.00 0.00 0.00 35 888.8
20260510070003 21 145 0.0 0.0 0.00 0.00 0.00 35 889.0
20260510064753 21 145 0.0 0.0 0.00 0.00 0.00 34 889.0
20260510063544 21 152 0.0 0.0 0.00 0.00 0.00 33 888.9
20260510062336 21 139 0.0 0.0 0.00 0.00 0.00 32 888.8
20260510061126 22 152 0.0 0.0 0.00 0.00 0.00 31 888.8
20260510055917 22 132 0.0 0.0 0.00 0.00 0.00 30 888.9
20260510054708 22 152 0.0 0.0 0.00 0.00 0.00 29 889.3
20260510053459 22 148 0.0 0.0 0.00 0.00 0.00 28 889.3
20260510052250 22 141 0.0 0.0 0.00 0.00 0.00 27 888.9
20260510051041 22 145 0.0 0.0 0.00 0.00 0.00 25 889.0
20260510045833 22 131 0.0 0.0 0.00 0.00 0.00 23 889.0
20260510044623 23 146 0.0 0.0 0.00 0.00 0.00 22 889.1
20260510043414 23 149 0.0 0.0 0.00 0.00 0.00 20 889.2
20260510042206 23 152 0.0 0.0 0.00 0.00 0.00 19 889.1
20260510040956 23 141 0.0 0.0 0.00 0.00 0.00 17 889.2
20260510035747 23 107 0.0 0.0 0.00 0.00 0.00 16 889.0
20260510034538 23 114 0.0 0.0 0.00 0.00 0.00 14 889.0
20260510033329 24 142 0.0 0.0 0.00 0.00 0.00 13 889.0
20260510032120 24 135 0.0 0.0 0.00 0.00 0.00 13 888.7
20260510030911 25 145 0.0 0.0 0.00 0.00 0.00 12 888.2
20260510025702 25 156 0.0 0.0 0.00 0.00 0.00 11 888.5
20260510024453 25 146 0.0 0.0 0.00 0.00 0.00 10 888.5
20260510023244 25 135 0.0 0.0 0.00 0.00 0.00 9 888.1
20260510022035 26 128 0.0 0.0 0.00 0.00 0.00 9 887.8
20260510020826 26 148 0.0 0.0 0.00 0.00 0.00 8 887.6
20260510015617 26 135 0.0 0.0 0.00 0.00 0.00 7 887.6
20260510014408 27 132 0.0 0.0 0.00 0.00 0.00 6 887.5
20260510013159 27 146 0.0 0.0 0.00 0.00 0.00 5 887.4
20260510011950 28 136 0.0 0.0 0.00 0.00 0.00 5 887.3
20260510010741 28 141 0.0 0.0 0.00 0.00 0.00 4 887.3
20260510005532 28 96 0.0 0.0 0.00 0.00 0.00 4 887.3
20260510004323 29 145 0.0 0.0 0.00 0.00 0.00 3 887.1
20260510003114 29 138 0.0 0.0 0.00 0.00 0.00 3 887.0
20260510001905 30 89 0.0 0.0 0.00 0.00 0.00 2 887.1
20260510000656 30 115 0.0 0.0 0.00 0.00 0.00 2 887.1
20260509235447 30 89 0.0 0.0 0.00 0.00 0.00 1 887.2
20260509234238 30 179 0.0 0.0 0.00 0.00 0.00 1 887.0
20260509233029 31 132 0.0 0.0 0.00 0.00 0.00 1 887.1
20260509231820 31 111 0.0 0.0 0.00 0.00 0.00 0 887.1
20260509230611 31 160 0.0 0.0 0.00 0.00 0.00 0 887.3
20260509225402 31 115 0.0 0.0 0.00 0.00 0.00 0 887.3
20260509224153 31 27 0.0 0.0 0.00 0.00 0.00 100 887.4
20260509222944 32 79 0.0 0.0 0.00 0.00 0.00 100 887.5
20260509221735 32 86 0.0 0.0 0.00 0.00 0.00 100 887.4